Weather Roundup
Issued by NWS Chicago, IL

Home | Current Version | Previous Version | Graphics & Text | Print | Product List | Glossary On
Versions: 1 2 3 4 5 6 7 8 9 10 11 12 13 14 15 16 17 18 19 20 21 22 23 24 25 26 27 28 29 30 31 32 33 34 35 36 37 38 39 40 41 42 43 44 45 46 47 48 49 50
000
NZUS59 KLOT 181758
HRRLOT

CHICAGO AREA WEATHER ROUNDUP
NATIONAL WEATHER SERVICE CHICAGO/ROMEOVILLE IL
100 PM CDT FRI APR 18 2014

NOTE: "FAIR" INDICATES FEW OR NO CLOUDS BELOW 12,000 FEET WITH NO
SIGNIFICANT WEATHER AND/OR OBSTRUCTIONS TO VISIBILITY.

* THESE STATIONS ARE NOT UNDER NWS QUALITY CONTROL. THEY ALSO MAY NOT
  REPORT WEATHER SUCH AS PRECIPITATION OR FOG.

ILZ005-006-012>014-019>023-181900-
NORTHEAST ILLINOIS

CITY           SKY/WX    TMP DP  RH WIND       PRES   REMARKS
OHARE          NOT AVBL
MIDWAY         MOSUNNY   50  35  56 NE12      30.36S
6HR MIN TEMP:  43; 6HR MAX TEMP:  51;

AURORA         SUNNY     58  37  45 VRB7      30.33F
6HR MIN TEMP:  33; 6HR MAX TEMP:  58;

WAUKEGAN       SUNNY     42  31  64 NE12G20   30.36S
6HR MIN TEMP:  36; 6HR MAX TEMP:  45;

DUPAGE AIRPORT SUNNY     57  36  45 N7        30.32F
6HR MIN TEMP:  36; 6HR MAX TEMP:  58;

WHEELING       SUNNY     46  33  60 NE14G22   30.37S
6HR MIN TEMP:  41; 6HR MAX TEMP:  49;

NORTHERLY IS     N/A     43  35  73 N14         N/A
$$

WIZ051-052-058>065-066-070>072-181900-
SOUTHEAST WISCONSIN

CITY           SKY/WX    TMP DP  RH WIND       PRES   REMARKS
MILWAUKEE      MOSUNNY   42  30  62 NE13      30.38S
6HR MIN TEMP:  38; 6HR MAX TEMP:  44;

WAUKESHA       MOSUNNY   45  32  61 CALM      30.36S
$$

INZ001>003-010>013-019-020-181900-
NORTHWEST INDIANA

CITY           SKY/WX    TMP DP  RH WIND       PRES   REMARKS
GARY*          MOSUNNY   46  36  66 N14       30.37F
MICHIGAN CITY* NOT AVBL
RENSSELAER*    NOT AVBL
$$

LMZ740>746-181900-
SOUTHERN LAKE MICHIGAN

STATION/POSITION TIME  SKY/WX   TEMP WIND        PRES    VSBY
                                AIR  DIR/SP/G
                 (UTC)          (F)  (DEG/KT/KT) (MB)    (MI)
HARRISON CRIB    1700            37  360/ 15/ 18   N/A
BURNHAM HARBOR   1700            43   10/ 15/ 16   N/A
CALUMET HARBOR   1700            41  340/ 12/ 17 1029.1S
BURNS HARBOR     NOT AVBL
MICHIGAN CITY    1700            39  330/ 10/ 12   N/A
$$

ABBREVIATIONS USED IN REMARKS
   TC - TEMPERATURE IN CELSIUS
  WCI - WIND CHILL INDEX
   HX - HEAT INDEX
  VSB - VISIBILITY
$$



USA.gov is the U.S. government's official web portal to all federal, state and local government web resources and services.